weather.gov     
National Weather Service

Regional Weather Roundup
NWS Homepage
This page is being discontinued on March 12, 2014.
The same data is available at this site. Please update your bookmarks.
Thank you, and we apologize for the inconvenience.
Please send an email to SR-SRH.Webmaster@noaa.gov with any concerns.


Current Version
Previous Version:    01  02  03  04  05  06  07  08  09  10  11  12  13  14  15  16  17  18  19  20  21  22  23  24  25  26  27  28  29  30  
   31  32  33  34  35  36  37  38  39  40  41  42  43  44  45  46  47  48  49  50  51  52  53  54  
[Printable]
895
ASUS46 KSGX 301210
RWRSGX

SAN DIEGO HOURLY WEATHER ROUNDUP
NATIONAL WEATHER SERVICE SAN DIEGO CA
500 AM PDT SAT AUG 30 2014

NOTE: "FAIR" INDICATES FEW OR NO CLOUDS BELOW 12,000 FEET WITH NO
SIGNIFICANT WEATHER AND/OR OBSTRUCTIONS TO VISIBILITY.

CAZ042-043-060-061-PZZ750-775-301300-

GREATER SAN DIEGO AREA

CITY           SKY/WX    TMP DP  RH WIND       PRES   REMARKS
LINDBERGH FLD  CLOUDY    69  63  81 CALM      29.83S
POINT LOMA       N/A     64  62  92 SE3         N/A
NATIONAL CITY    N/A     69  66  89 CALM      29.82S
CHULA VISTA      N/A     68  65  92 CALM      29.76R
IMPERIAL BEACH CLOUDY    67  64  90 CALM      29.82S
BROWN FIELD    CLOUDY    67  64  90 CALM      29.83S
MIRAMAR MCAS   PTCLDY    65  62  90 CALM      29.82S
MONTGOMERY FLD CLOUDY    67  63  87 SE3       29.82S

$$

NORTH SAN DIEGO COUNTY

CITY           SKY/WX    TMP DP  RH WIND       PRES   REMARKS
CAMP PENDLETON CLOUDY    66  62  87 CALM      29.81F FOG
OCEANSIDE AP   CLOUDY    67  62  84 CALM      29.81S
OCEANSIDE HBR    N/A     67  65  93 NE2       29.84S
VISTA            N/A     66  61  85 CALM      29.79F
CARLSBAD       CLOUDY    67  63  87 CALM      29.81S
DEL MAR          N/A     65  64  96 CALM      29.84S
LA JOLLA SCRIP   N/A     65  64  96 SE1       29.78F
FALLBROOK        N/A     64  64 100 CALM      29.82S
ESCONDIDO        N/A     65  61  88 CALM      29.82S
SAN MARCOS       N/A     65  60  86 CALM      29.79S
POWAY            N/A     60  56  89 CALM      29.82S

$$

EAST SAN DIEGO COUNTY

CITY           SKY/WX    TMP DP  RH WIND       PRES   REMARKS
RAMONA         CLEAR     56  51  84 CALM      29.84S
SANTEE LAKES     N/A     61  59  93 CALM      29.83R
LA MESA          N/A     66  64  93 CALM      29.75S
JAMUL            N/A     61  59  93 CALM      29.80R
DESCANSO N       N/A     63  32  31 E2        29.67S
MT. LAGUNA OBS   N/A     71  10   9 W2        29.71S
CAMPO            N/A     57  43  59 NE5       29.88S

$$

ORANGE COUNTY AND THE LOS ANGELES BASIN

CITY           SKY/WX    TMP DP  RH WIND       PRES   REMARKS
JOHN WAYNE AP  CLOUDY    70  63  78 CALM      29.81S
LAGUNA BEACH     N/A     67  64  90 CALM      29.78R
LAKE FOREST FR   N/A     62  55  78 CALM      29.71R
SANTA ANA        N/A     66  63  89 CALM      29.77R
HUNTINGTON BCH   N/A     65  64  96 CALM      29.83S
LOS ALAMITOS   FAIR      65  63  96 SE2       29.81S
FULLERTON      CLEAR     68  62  81 CALM      29.81R
LONG BEACH     CLEAR     66  62  87 SE3       29.81S
L.A. AP        PTCLDY    67  64  90 CALM      29.82R
L.A. DOWNTOWN  CLEAR     66  62  87 CALM      29.81S

$$

THE INLAND EMPIRE

CITY           SKY/WX    TMP DP  RH WIND       PRES   REMARKS
CORONA         CLEAR     58  55  89 CALM      29.83R
CHINO          CLEAR     62  58  86 CALM      29.83S
ONTARIO        CLEAR     66  58  75 CALM      29.82S
RIVERSIDE AP   CLEAR     67  57  70 CALM      29.82S
RIV CYN CREST    N/A     67  64  88 S1        29.79S
MORENO VALLEY    N/A     68  57  67 CALM      29.03S
MARCH ARB      CLEAR     63  50  63 CALM      29.85S
HORSETHIEF CYN   N/A     65  40  40 CALM      29.80S
PERRIS           N/A     67  56  67 CALM      29.81S
MENIFEE          N/A     65  59  80 CALM      29.89R
HEMET EAST       N/A     69  35  27 CALM      29.78S
FRENCH VALLEY  FAIR      63  52  67 CALM      29.84S
TEMECULA         N/A     63  59  85 CALM      29.79S

$$

SAN BERNARDINO AND RIVERSIDE COUNTY MOUNTAINS

CITY           SKY/WX    TMP DP  RH WIND       PRES   REMARKS
BIG BEAR AP    CLEAR     43  28  56 CALM      30.21S
ANGELUS OAKS     N/A     63  26  24 CALM      29.69S
PINE COVE        N/A     69  26  20 CALM      29.67F

$$

SOUTHERN DESERT INCLUDING THE COACHELLA VALLEY

CITY           SKY/WX    TMP DP  RH WIND       PRES   REMARKS
PALM SPRINGS   CLEAR     81  50  33 W3        29.72S
PALM DESERT      N/A     81  53  37 CALM      28.88F
THERMAL        CLEAR     74  46  36 NE3       29.65S
BLYTHE         CLEAR     79  42  26 N10       29.70R
IMPERIAL AP    CLEAR     83  44  25 CALM      29.66S
EL CENTRO NAS  CLEAR     80  44  27 W3        29.66S
YUMA AZ        CLEAR     84  50  30 N3        29.68S

$$

UPPER DESERT

CITY           SKY/WX    TMP DP  RH WIND       PRES   REMARKS
VICTORVILLE AP CLEAR     70  32  24 S5        29.93R
HESPERIA         N/A     66  34  29 W3        29.88S
APPLE VALLEY     N/A     63  35  34 CALM      30.03S
PALMDALE       CLEAR     68  33  27 SW8       29.91S
LANCASTER      CLEAR     75  37  25 W14       29.88F
EDWARDS AFB    CLEAR     75  38  26 SW13      29.86S
DAGGETT        CLEAR     75  31  19 SW12      29.84S
29 PALMS N     CLEAR     79  32  18 N6        29.91R
NEEDLES        CLEAR     81  37  20 SW6       29.75R

$$

REGIONAL REPORTS

CITY           SKY/WX    TMP DP  RH WIND       PRES   REMARKS
SANTA BARBARA  CLEAR     61  56  83 CALM      29.79S
SANDBERG       CLEAR     70  39  32 NE10G26   30.06S
MT. WILSON       N/A     68  21  17 MISG        N/A
LAS VEGAS NV   PTCLDY    82  31  15 S7        29.78R
PHOENIX AZ     CLEAR     85  47  26 SE8       29.77R
TIJUANA        CLOUDY    66  61  82 CALM      29.85R HAZE
ENSENADA NW      N/A     68  32  26 W3        29.79S

$$

OFFSHORE ISLANDS

CITY           SKY/WX    TMP DP  RH WIND       PRES   REMARKS
CATALINA ARPT  CLEAR     67  50  54 N5        29.85S
SAN NICOLAS IS FAIR     N/A N/A N/A W6        29.81S HAZE

$$

MARINE AND OFFSHORE BUOY REPORTS

STATION/POSITION SKY/WX   TEMP    WIND        PRES    SWELL
                          AIR SEA DIR/SP/G            HT/PER/DIR
                          (F)     (DEG/KT/KT) (MB)    (FT/S/D)
TANNER BANKS               66 69  310/ 16/ 17 1009.8F   3/220/ 9
S CLEMENTE BASIN           66 71  280/  6/ 10 1009.6F   3/210/13
SAN NICOLAS IS.               65                N/A     3/200/14
SO. S. ROSA ISLA           63 67  320/ 17/ 21 1008.6R   2/ 9
W. S. BARBARA CH           60 61  320/ 19/ 23 1007.9F   2/210/ 9
S. MONICA BASIN            67 71   CALM  /  2 1009.0R   3/260/ 6
S PEDRO CHANNEL               72                N/A     2/160/11
DANA POINT                    69                N/A     2/190/15
CMP PENDLETON NS              73                N/A     2/220/17
OCEANSIDE OFFSHR              74                N/A     2/200/14
TORREY PINES OTR              74                N/A     2/200/11
LA JOLLA 1                 67 68  110/  4/  4 1009.6F
MISSION BAY BUOY              68                N/A     2/210/15
SAN DIEGO BAY                 75              1010.2S
POINT LOMA SOUTH              74                N/A     3/190/15

$$





U.S. Dept. of Commerce
NOAA National Weather Service
1325 East West Highway
Silver Spring, MD 20910
E-mail: w-nws.webmaster@noaa.gov
Page last modified: May 16, 2007
NATIONAL WEATHER SERVICE: for Safety, for Work, for Fun - FOR LIFE